| time (UTC) | temp C | wind direction | speed KPH | gust KPH | rain 1hr cm | rain 24hr cm | rain mn cm | humidity % | barometer mb |
| 20260506235105 | 27 | 153 | 6.4 | 11.3 | 0.00 | 0.00 | 0.00 | 86 | 1007.9 |
| 20260506234830 | 27 | 175 | 8.0 | 16.1 | 0.00 | 0.00 | 0.00 | 86 | 1008.0 |
| 20260506234106 | 27 | 0 | 9.7 | 16.1 | 0.00 | 0.00 | 0.00 | 86 | 1007.8 |
| 20260506233605 | 28 | 173 | 8.0 | 14.5 | 0.00 | 0.00 | 0.00 | 85 | 1008.0 |
| 20260506233331 | 28 | 0 | 8.0 | 14.5 | 0.00 | 0.00 | 0.00 | 85 | 1008.0 |
| 20260506232606 | 28 | 121 | 8.0 | 14.5 | 0.00 | 0.00 | 0.00 | 84 | 1007.9 |
| 20260506232101 | 28 | 96 | 8.0 | 12.9 | 0.00 | 0.00 | 0.00 | 84 | 1007.8 |
| 20260506231601 | 28 | 151 | 8.0 | 16.1 | 0.00 | 0.00 | 0.00 | 85 | 1007.8 |
| 20260506231101 | 28 | 145 | 8.0 | 16.1 | 0.00 | 0.00 | 0.00 | 84 | 1007.8 |
| 20260506230601 | 28 | 155 | 6.4 | 12.9 | 0.00 | 0.00 | 0.00 | 84 | 1007.7 |
| 20260506225601 | 28 | 134 | 8.0 | 16.1 | 0.00 | 0.00 | 0.00 | 84 | 1007.7 |
| 20260506225056 | 28 | 162 | 9.7 | 16.1 | 0.00 | 0.00 | 0.00 | 85 | 1007.8 |
| 20260506224816 | 28 | 161 | 9.7 | 16.1 | 0.00 | 0.00 | 0.00 | 86 | 1007.7 |
| 20260506224043 | 27 | 150 | 9.7 | 14.5 | 0.00 | 0.00 | 0.00 | 86 | 1007.6 |
| 20260506223538 | 27 | 0 | 9.7 | 17.7 | 0.00 | 0.00 | 0.00 | 86 | 1007.7 |
| 20260506223259 | 27 | 0 | 9.7 | 17.7 | 0.00 | 0.00 | 0.00 | 85 | 1007.7 |
| 20260506222533 | 27 | 179 | 9.7 | 17.7 | 0.00 | 0.00 | 0.00 | 85 | 1007.7 |
| 20260506222033 | 27 | 0 | 9.7 | 17.7 | 0.00 | 0.00 | 0.00 | 86 | 1007.7 |
| 20260506221532 | 27 | 173 | 9.7 | 17.7 | 0.00 | 0.00 | 0.00 | 86 | 1007.8 |
| 20260506221524 | 27 | 0 | 9.7 | 16.1 | 0.00 | 0.00 | 0.00 | 86 | 1007.8 |
| 20260506220531 | 27 | 0 | 11.3 | 16.1 | 0.00 | 0.00 | 0.00 | 86 | 1007.7 |
| 20260506220030 | 27 | 0 | 11.3 | 16.1 | 0.00 | 0.00 | 0.00 | 86 | 1007.8 |
| 20260506215530 | 27 | 0 | 11.3 | 22.5 | 0.00 | 0.00 | 0.00 | 85 | 1007.7 |
| 20260506215030 | 27 | 153 | 11.3 | 22.5 | 0.00 | 0.00 | 0.00 | 85 | 1007.8 |
| 20260506214530 | 27 | 182 | 11.3 | 22.5 | 0.00 | 0.00 | 0.00 | 85 | 1007.8 |
| 20260506214031 | 27 | 164 | 12.9 | 22.5 | 0.00 | 0.00 | 0.00 | 85 | 1007.9 |
| 20260506213801 | 27 | 0 | 14.5 | 24.1 | 0.00 | 0.00 | 0.00 | 85 | 1007.8 |
| 20260506213036 | 27 | 0 | 14.5 | 27.4 | 0.00 | 0.00 | 0.00 | 85 | 1007.8 |
| 20260506212535 | 27 | 154 | 16.1 | 27.4 | 0.00 | 0.00 | 0.00 | 85 | 1007.7 |
| 20260506212032 | 27 | 148 | 17.7 | 25.7 | 0.00 | 0.00 | 0.00 | 85 | 1007.8 |
| 20260506211530 | 28 | 172 | 16.1 | 25.7 | 0.00 | 0.00 | 0.00 | 84 | 1007.9 |
| 20260506211030 | 28 | 153 | 14.5 | 22.5 | 0.00 | 0.00 | 0.00 | 83 | 1007.9 |
| 20260506210530 | 28 | 166 | 11.3 | 22.5 | 0.00 | 0.00 | 0.00 | 83 | 1008.0 |
| 20260506210253 | 28 | 192 | 9.7 | 17.7 | 0.00 | 0.00 | 0.00 | 82 | 1008.0 |
| 20260506205520 | 29 | 200 | 9.7 | 17.7 | 0.00 | 0.00 | 0.00 | 81 | 1008.0 |
| 20260506205014 | 29 | 184 | 9.7 | 16.1 | 0.00 | 0.00 | 0.00 | 80 | 1008.0 |
| 20260506204734 | 30 | 160 | 9.7 | 17.7 | 0.00 | 0.00 | 0.00 | 79 | 1008.0 |
| 20260506204008 | 30 | 201 | 11.3 | 22.5 | 0.00 | 0.00 | 0.00 | 78 | 1008.0 |
| 20260506203732 | 30 | 159 | 12.9 | 22.5 | 0.00 | 0.00 | 0.00 | 79 | 1007.9 |
| 20260506203235 | 30 | 123 | 11.3 | 20.9 | 0.00 | 0.00 | 0.00 | 77 | 1008.0 |
| 20260506202506 | 30 | 139 | 11.3 | 20.9 | 0.00 | 0.00 | 0.00 | 78 | 1007.9 |
| 20260506202235 | 30 | 220 | 9.7 | 20.9 | 0.00 | 0.00 | 0.00 | 77 | 1007.9 |
| 20260506201506 | 30 | 181 | 9.7 | 19.3 | 0.00 | 0.00 | 0.00 | 78 | 1008.0 |
| 20260506201006 | 30 | 203 | 9.7 | 19.3 | 0.00 | 0.00 | 0.00 | 79 | 1007.9 |
| 20260506200734 | 30 | 197 | 9.7 | 19.3 | 0.00 | 0.00 | 0.00 | 78 | 1008.0 |
| 20260506200237 | 30 | 192 | 9.7 | 17.7 | 0.00 | 0.00 | 0.00 | 80 | 1008.1 |
| 20260506195506 | 30 | 159 | 9.7 | 17.7 | 0.00 | 0.00 | 0.00 | 81 | 1008.2 |
| 20260506195006 | 29 | 171 | 9.7 | 16.1 | 0.00 | 0.00 | 0.00 | 82 | 1008.2 |
| 20260506194506 | 29 | 150 | 9.7 | 19.3 | 0.00 | 0.00 | 0.00 | 83 | 1008.3 |
| 20260506194006 | 29 | 222 | 9.7 | 19.3 | 0.00 | 0.00 | 0.00 | 83 | 1008.6 |
| 20260506193507 | 29 | 196 | 11.3 | 22.5 | 0.00 | 0.00 | 0.00 | 82 | 1008.5 |
| 20260506193005 | 29 | 169 | 12.9 | 22.5 | 0.00 | 0.00 | 0.00 | 82 | 1008.6 |
| 20260506192506 | 29 | 209 | 11.3 | 22.5 | 0.00 | 0.00 | 0.00 | 83 | 1008.8 |
| 20260506192005 | 28 | 204 | 11.3 | 22.5 | 0.00 | 0.00 | 0.00 | 84 | 1008.8 |
| 20260506191505 | 28 | 168 | 9.7 | 22.5 | 0.00 | 0.00 | 0.00 | 84 | 1009.0 |
| 20260506191006 | 28 | 207 | 9.7 | 22.5 | 0.00 | 0.00 | 0.00 | 84 | 1009.0 |
| 20260506190731 | 28 | 182 | 9.7 | 19.3 | 0.00 | 0.00 | 0.00 | 85 | 1009.1 |
| 20260506190713 | 28 | 175 | 9.7 | 20.9 | 0.00 | 0.00 | 0.00 | 85 | 1009.1 |
| 20260506185730 | 28 | 183 | 8.0 | 16.1 | 0.00 | 0.00 | 0.00 | 84 | 1009.2 |
| 20260506185500 | 27 | 209 | 8.0 | 16.1 | 0.00 | 0.00 | 0.00 | 86 | 1009.3 |
| 20260506184502 | 27 | 153 | 8.0 | 19.3 | 0.00 | 0.00 | 0.00 | 86 | 1009.4 |
| 20260506184227 | 27 | 189 | 8.0 | 19.3 | 0.00 | 0.00 | 0.00 | 86 | 1009.5 |
| 20260506183502 | 27 | 207 | 8.0 | 16.1 | 0.00 | 0.00 | 0.00 | 87 | 1009.5 |
| 20260506183001 | 27 | 153 | 8.0 | 19.3 | 0.00 | 0.00 | 0.00 | 86 | 1009.5 |
| 20260506182736 | 27 | 209 | 8.0 | 19.3 | 0.00 | 0.00 | 0.00 | 86 | 1009.5 |
| 20260506182001 | 27 | 0 | 6.4 | 14.5 | 0.00 | 0.00 | 0.00 | 86 | 1009.7 |
| 20260506181501 | 27 | 178 | 6.4 | 16.1 | 0.00 | 0.00 | 0.00 | 86 | 1009.6 |
| 20260506181001 | 27 | 208 | 8.0 | 16.1 | 0.00 | 0.00 | 0.00 | 87 | 1009.7 |
| 20260506180501 | 27 | 196 | 8.0 | 14.5 | 0.00 | 0.00 | 0.00 | 87 | 1009.8 |
| 20260506180000 | 27 | 166 | 6.4 | 14.5 | 0.00 | 0.00 | 0.00 | 87 | 1009.8 |
| 20260506175504 | 27 | 165 | 8.0 | 16.1 | 0.00 | 0.00 | 0.00 | 87 | 1009.9 |
| 20260506175004 | 27 | 192 | 8.0 | 16.1 | 0.00 | 0.00 | 0.00 | 87 | 1009.9 |
| 20260506174504 | 27 | 0 | 6.4 | 14.5 | 0.00 | 0.00 | 0.00 | 87 | 1009.8 |
| 20260506174004 | 27 | 212 | 6.4 | 14.5 | 0.00 | 0.00 | 0.00 | 88 | 1009.8 |
| 20260506173502 | 27 | 179 | 6.4 | 14.5 | 0.00 | 0.00 | 0.00 | 88 | 1009.8 |
| 20260506173002 | 27 | 132 | 8.0 | 12.9 | 0.00 | 0.00 | 0.00 | 88 | 1009.8 |
| 20260506172732 | 27 | 210 | 9.7 | 20.9 | 0.00 | 0.00 | 0.00 | 88 | 1009.7 |
| 20260506172004 | 27 | 161 | 12.9 | 20.9 | 0.00 | 0.00 | 0.00 | 88 | 1009.7 |
| 20260506171731 | 27 | 179 | 12.9 | 20.9 | 0.00 | 0.00 | 0.00 | 89 | 1009.7 |
| 20260506171002 | 27 | 165 | 11.3 | 19.3 | 0.00 | 0.00 | 0.00 | 89 | 1009.8 |
| 20260506170503 | 26 | 135 | 11.3 | 19.3 | 0.00 | 0.00 | 0.00 | 90 | 1009.8 |
| 20260506170001 | 26 | 0 | 12.9 | 19.3 | 0.00 | 0.00 | 0.00 | 90 | 1009.7 |
| 20260506165501 | 26 | 110 | 11.3 | 20.9 | 0.00 | 0.00 | 0.00 | 91 | 1009.8 |
| 20260506165001 | 26 | 174 | 12.9 | 20.9 | 0.00 | 0.00 | 0.00 | 90 | 1009.9 |
| 20260506164502 | 26 | 0 | 12.9 | 20.9 | 0.00 | 0.00 | 0.00 | 90 | 1009.9 |
| 20260506164001 | 26 | 0 | 11.3 | 20.9 | 0.00 | 0.00 | 0.00 | 90 | 1010.0 |
| 20260506163501 | 26 | 0 | 11.3 | 19.3 | 0.00 | 0.00 | 0.00 | 90 | 1009.8 |
| 20260506163001 | 26 | 140 | 12.9 | 22.5 | 0.00 | 0.00 | 0.00 | 90 | 1009.9 |
| 20260506162501 | 26 | 0 | 11.3 | 22.5 | 0.00 | 0.00 | 0.00 | 90 | 1009.8 |
| 20260506162001 | 26 | 111 | 11.3 | 16.1 | 0.00 | 0.00 | 0.00 | 91 | 1009.8 |
| 20260506161501 | 26 | 134 | 9.7 | 16.1 | 0.00 | 0.00 | 0.00 | 91 | 1009.8 |
| 20260506161001 | 26 | 118 | 9.7 | 17.7 | 0.00 | 0.00 | 0.00 | 92 | 1009.7 |
| 20260506160502 | 26 | 123 | 9.7 | 17.7 | 0.00 | 0.00 | 0.00 | 92 | 1009.6 |
| 20260506160000 | 26 | 116 | 8.0 | 14.5 | 0.00 | 0.00 | 0.00 | 92 | 1009.4 |
| 20260506155502 | 26 | 128 | 8.0 | 16.1 | 0.00 | 0.00 | 0.00 | 92 | 1009.5 |
| 20260506155453 | 26 | 159 | 8.0 | 16.1 | 0.00 | 0.00 | 0.00 | 92 | 1009.5 |
| 20260506154501 | 26 | 157 | 9.7 | 16.1 | 0.00 | 0.00 | 0.00 | 92 | 1009.4 |
| 20260506154000 | 26 | 157 | 9.7 | 17.7 | 0.00 | 0.00 | 0.00 | 92 | 1009.4 |
| 20260506153732 | 25 | 154 | 11.3 | 17.7 | 0.00 | 0.00 | 0.00 | 93 | 1009.4 |
| 20260506153238 | 25 | 141 | 11.3 | 17.7 | 0.00 | 0.00 | 0.00 | 93 | 1009.2 |
| 20260506152501 | 25 | 165 | 11.3 | 17.7 | 0.00 | 0.00 | 0.00 | 94 | 1009.1 |
| 20260506152000 | 25 | 155 | 11.3 | 17.7 | 0.00 | 0.00 | 0.00 | 94 | 1009.1 |
| 20260506151501 | 25 | 157 | 11.3 | 17.7 | 0.00 | 0.00 | 0.00 | 94 | 1009.1 |
| 20260506151234 | 25 | 161 | 8.0 | 16.1 | 0.00 | 0.00 | 0.00 | 94 | 1009.1 |
| 20260506150501 | 25 | 0 | 8.0 | 17.7 | 0.00 | 0.00 | 0.00 | 94 | 1009.1 |
| 20260506150001 | 25 | 0 | 9.7 | 17.7 | 0.00 | 0.00 | 0.00 | 94 | 1008.9 |
| 20260506145956 | 25 | 0 | 9.7 | 17.7 | 0.00 | 0.00 | 0.00 | 94 | 1009.0 |
| 20260506145003 | 25 | 128 | 8.0 | 14.5 | 0.00 | 0.00 | 0.00 | 95 | 1008.9 |
| 20260506144957 | 25 | 138 | 8.0 | 14.5 | 0.00 | 0.00 | 0.00 | 95 | 1008.9 |
| 20260506144003 | 25 | 123 | 8.0 | 12.9 | 0.00 | 0.00 | 0.00 | 95 | 1008.9 |
| 20260506143502 | 25 | 132 | 9.7 | 16.1 | 0.00 | 0.00 | 0.00 | 95 | 1008.7 |
| 20260506142955 | 25 | 136 | 9.7 | 16.1 | 0.00 | 0.00 | 0.00 | 95 | 1008.7 |
| 20260506142718 | 25 | 129 | 8.0 | 12.9 | 0.00 | 0.00 | 0.00 | 95 | 1008.7 |
| 20260506141943 | 25 | 121 | 6.4 | 11.3 | 0.00 | 0.00 | 0.00 | 96 | 1008.8 |
| 20260506141439 | 25 | 130 | 4.8 | 11.3 | 0.00 | 0.00 | 0.00 | 96 | 1008.8 |
| 20260506140939 | 25 | 104 | 4.8 | 9.7 | 0.00 | 0.00 | 0.00 | 96 | 1008.9 |
| 20260506140439 | 25 | 106 | 3.2 | 6.4 | 0.00 | 0.00 | 0.00 | 96 | 1008.8 |
| 20260506135939 | 25 | 123 | 3.2 | 6.4 | 0.00 | 0.00 | 0.00 | 96 | 1008.8 |
| 20260506135439 | 24 | 95 | 3.2 | 6.4 | 0.00 | 0.00 | 0.00 | 96 | 1008.7 |
| 20260506135209 | 24 | 80 | 3.2 | 6.4 | 0.00 | 0.00 | 0.00 | 96 | 1008.8 |
| 20260506134706 | 24 | 73 | 1.6 | 4.8 | 0.00 | 0.00 | 0.00 | 96 | 1008.8 |
| 20260506134435 | 24 | 82 | 3.2 | 6.4 | 0.00 | 0.00 | 0.00 | 96 | 1008.7 |
| 20260506133435 | 24 | 82 | 3.2 | 8.0 | 0.00 | 0.00 | 0.00 | 96 | 1008.7 |
| 20260506132935 | 24 | 76 | 3.2 | 8.0 | 0.00 | 0.00 | 0.00 | 96 | 1008.7 |
| 20260506132436 | 24 | 78 | 3.2 | 9.7 | 0.00 | 0.00 | 0.00 | 96 | 1008.6 |
| 20260506131935 | 24 | 121 | 4.8 | 9.7 | 0.00 | 0.00 | 0.00 | 96 | 1008.7 |
| 20260506131435 | 24 | 105 | 3.2 | 6.4 | 0.00 | 0.00 | 0.00 | 96 | 1008.7 |
| 20260506130934 | 24 | 101 | 1.6 | 3.2 | 0.00 | 0.00 | 0.00 | 96 | 1008.8 |
| 20260506130439 | 24 | 101 | 0.0 | 3.2 | 0.00 | 0.00 | 0.00 | 96 | 1008.7 |
| 20260506130429 | 24 | 76 | 1.6 | 4.8 | 0.00 | 0.00 | 0.00 | 96 | 1008.7 |
| 20260506125434 | 24 | 76 | 3.2 | 4.8 | 0.00 | 0.00 | 0.00 | 96 | 1008.6 |
| 20260506124935 | 24 | 69 | 1.6 | 4.8 | 0.00 | 0.00 | 0.00 | 96 | 1008.6 |
| 20260506124427 | 24 | 96 | 3.2 | 4.8 | 0.00 | 0.00 | 0.00 | 96 | 1008.6 |
| 20260506123920 | 24 | 93 | 3.2 | 4.8 | 0.00 | 0.00 | 0.00 | 96 | 1008.7 |
| 20260506123415 | 24 | 81 | 3.2 | 4.8 | 0.00 | 0.00 | 0.00 | 96 | 1008.7 |
| 20260506122908 | 24 | 81 | 3.2 | 4.8 | 0.00 | 0.00 | 0.00 | 96 | 1008.7 |
| 20260506122403 | 24 | 98 | 3.2 | 6.4 | 0.00 | 0.00 | 0.00 | 96 | 1008.5 |
| 20260506121902 | 24 | 105 | 3.2 | 9.7 | 0.00 | 0.00 | 0.00 | 96 | 1008.4 |
| 20260506121401 | 24 | 103 | 4.8 | 9.7 | 0.00 | 0.00 | 0.00 | 96 | 1008.3 |
| 20260506120906 | 24 | 123 | 4.8 | 9.7 | 0.00 | 0.00 | 0.00 | 96 | 1008.5 |
| 20260506120406 | 24 | 0 | 4.8 | 9.7 | 0.00 | 0.00 | 0.00 | 96 | 1008.4 |
| 20260506115906 | 24 | 108 | 4.8 | 9.7 | 0.00 | 0.00 | 0.00 | 96 | 1008.4 |
| 20260506115628 | 24 | 124 | 4.8 | 9.7 | 0.00 | 0.00 | 0.00 | 96 | 1008.4 |
| 20260506115132 | 24 | 124 | 4.8 | 9.7 | 0.00 | 0.00 | 0.00 | 96 | 1008.3 |
| 20260506114853 | 24 | 147 | 4.8 | 9.7 | 0.00 | 0.00 | 0.00 | 96 | 1008.3 |
| 20260506113907 | 24 | 128 | 6.4 | 11.3 | 0.00 | 0.00 | 0.00 | 96 | 1008.2 |
| 20260506113407 | 24 | 130 | 6.4 | 14.5 | 0.00 | 0.00 | 0.00 | 96 | 1008.1 |
| 20260506112903 | 24 | 124 | 6.4 | 14.5 | 0.00 | 0.00 | 0.00 | 96 | 1008.2 |
| 20260506112401 | 24 | 139 | 8.0 | 16.1 | 0.00 | 0.00 | 0.00 | 96 | 1008.2 |
| 20260506111901 | 24 | 0 | 8.0 | 16.1 | 0.00 | 0.00 | 0.00 | 96 | 1008.2 |
| 20260506111401 | 24 | 0 | 6.4 | 12.9 | 0.00 | 0.00 | 0.00 | 96 | 1008.1 |
| 20260506110900 | 24 | 152 | 6.4 | 11.3 | 0.00 | 0.00 | 0.00 | 96 | 1008.1 |
| 20260506110401 | 24 | 158 | 6.4 | 14.5 | 0.00 | 0.00 | 0.00 | 96 | 1008.2 |
| 20260506105902 | 24 | 138 | 6.4 | 14.5 | 0.00 | 0.00 | 0.00 | 96 | 1008.2 |
| 20260506105400 | 24 | 0 | 6.4 | 12.9 | 0.00 | 0.00 | 0.00 | 96 | 1008.1 |
| 20260506104902 | 24 | 0 | 4.8 | 12.9 | 0.00 | 0.00 | 0.00 | 96 | 1008.1 |
| 20260506104858 | 24 | 0 | 4.8 | 8.0 | 0.00 | 0.00 | 0.00 | 96 | 1008.1 |
| 20260506103901 | 23 | 161 | 4.8 | 9.7 | 0.00 | 0.00 | 0.00 | 96 | 1008.1 |
| 20260506103628 | 23 | 0 | 4.8 | 9.7 | 0.00 | 0.00 | 0.00 | 96 | 1007.9 |
| 20260506103123 | 23 | 137 | 6.4 | 11.3 | 0.00 | 0.00 | 0.00 | 96 | 1007.9 |
| 20260506102400 | 23 | 146 | 6.4 | 11.3 | 0.00 | 0.00 | 0.00 | 96 | 1007.8 |
| 20260506101901 | 23 | 118 | 4.8 | 9.7 | 0.00 | 0.00 | 0.00 | 96 | 1007.8 |
| 20260506101628 | 23 | 134 | 4.8 | 11.3 | 0.00 | 0.00 | 0.00 | 96 | 1007.9 |
| 20260506100901 | 23 | 128 | 4.8 | 11.3 | 0.00 | 0.00 | 0.00 | 96 | 1007.8 |
| 20260506100401 | 23 | 123 | 3.2 | 6.4 | 0.00 | 0.00 | 0.00 | 96 | 1007.6 |
| 20260506095901 | 23 | 132 | 4.8 | 8.0 | 0.00 | 0.00 | 0.00 | 96 | 1007.7 |
| 20260506095401 | 23 | 139 | 3.2 | 8.0 | 0.00 | 0.00 | 0.00 | 96 | 1007.8 |
| 20260506094901 | 23 | 127 | 3.2 | 8.0 | 0.00 | 0.00 | 0.00 | 96 | 1007.7 |
| 20260506094636 | 23 | 142 | 3.2 | 8.0 | 0.00 | 0.00 | 0.00 | 96 | 1007.7 |
| 20260506093901 | 23 | 136 | 4.8 | 6.4 | 0.00 | 0.00 | 0.00 | 96 | 1007.7 |
| 20260506093401 | 23 | 128 | 4.8 | 9.7 | 0.00 | 0.00 | 0.00 | 96 | 1007.7 |
| 20260506092901 | 23 | 128 | 4.8 | 9.7 | 0.00 | 0.00 | 0.00 | 96 | 1007.7 |
| 20260506092628 | 23 | 141 | 4.8 | 11.3 | 0.00 | 0.00 | 0.00 | 96 | 1007.7 |
| 20260506091900 | 23 | 145 | 4.8 | 11.3 | 0.00 | 0.00 | 0.00 | 96 | 1007.6 |
| 20260506091401 | 23 | 0 | 6.4 | 12.9 | 0.00 | 0.00 | 0.00 | 96 | 1007.5 |
| 20260506090901 | 23 | 130 | 6.4 | 12.9 | 0.00 | 0.00 | 0.00 | 96 | 1007.5 |
| 20260506090401 | 23 | 133 | 4.8 | 9.7 | 0.00 | 0.00 | 0.00 | 96 | 1007.4 |
| 20260506090134 | 23 | 134 | 4.8 | 9.7 | 0.00 | 0.00 | 0.00 | 96 | 1007.5 |
| 20260506085403 | 23 | 128 | 6.4 | 12.9 | 0.00 | 0.00 | 0.00 | 96 | 1007.6 |
| 20260506085359 | 23 | 126 | 8.0 | 12.9 | 0.00 | 0.00 | 0.00 | 96 | 1007.6 |
| 20260506084406 | 23 | 131 | 8.0 | 14.5 | 0.00 | 0.00 | 0.00 | 96 | 1007.4 |
| 20260506083906 | 23 | 146 | 8.0 | 16.1 | 0.00 | 0.00 | 0.00 | 95 | 1007.4 |
| 20260506083407 | 23 | 130 | 8.0 | 16.1 | 0.00 | 0.00 | 0.00 | 95 | 1007.3 |
| 20260506082907 | 23 | 151 | 6.4 | 14.5 | 0.00 | 0.00 | 0.00 | 95 | 1007.6 |
| 20260506082406 | 23 | 130 | 6.4 | 12.9 | 0.00 | 0.00 | 0.00 | 95 | 1007.7 |
| 20260506081906 | 24 | 138 | 6.4 | 12.9 | 0.00 | 0.00 | 0.00 | 95 | 1007.7 |
| 20260506081406 | 24 | 143 | 8.0 | 12.9 | 0.00 | 0.00 | 0.00 | 95 | 1007.7 |
| 20260506080906 | 24 | 133 | 8.0 | 14.5 | 0.00 | 0.00 | 0.00 | 95 | 1007.8 |
| 20260506080405 | 24 | 156 | 8.0 | 14.5 | 0.00 | 0.00 | 0.00 | 95 | 1007.8 |
| 20260506073407 | 24 | 163 | 4.8 | 11.3 | 0.00 | 0.00 | 0.00 | 93 | 1008.3 |
| 20260506072906 | 24 | 173 | 6.4 | 12.9 | 0.00 | 0.00 | 0.00 | 93 | 1008.2 |
| 20260506072406 | 25 | 144 | 6.4 | 12.9 | 0.00 | 0.00 | 0.00 | 93 | 1008.2 |
| 20260506071906 | 25 | 132 | 6.4 | 12.9 | 0.00 | 0.00 | 0.00 | 92 | 1008.4 |
| 20260506071406 | 25 | 138 | 6.4 | 12.9 | 0.00 | 0.00 | 0.00 | 92 | 1008.4 |
| 20260506071130 | 25 | 151 | 6.4 | 14.5 | 0.00 | 0.00 | 0.00 | 93 | 1008.5 |
| 20260506070630 | 25 | 157 | 6.4 | 16.1 | 0.00 | 0.00 | 0.00 | 93 | 1008.7 |
| 20260506062402 | 25 | 167 | 8.0 | 12.9 | 0.00 | 0.00 | 0.00 | 93 | 1009.0 |
| 20260506061902 | 25 | 171 | 8.0 | 14.5 | 0.00 | 0.00 | 0.00 | 93 | 1008.9 |
| 20260506061402 | 25 | 146 | 8.0 | 14.5 | 0.00 | 0.00 | 0.00 | 93 | 1009.0 |
| 20260506060902 | 25 | 173 | 9.7 | 16.1 | 0.00 | 0.00 | 0.00 | 93 | 1008.9 |
| 20260506060359 | 25 | 134 | 9.7 | 20.9 | 0.00 | 0.00 | 0.00 | 93 | 1008.8 |
| 20260506051344 | 25 | 128 | 12.9 | 22.5 | 0.00 | 0.00 | 0.00 | 92 | 1008.5 |
| 20260506050845 | 25 | 148 | 11.3 | 17.7 | 0.00 | 0.00 | 0.00 | 92 | 1008.4 |
| 20260506050348 | 25 | 161 | 11.3 | 19.3 | 0.00 | 0.00 | 0.00 | 92 | 1008.4 |
| 20260506044843 | 25 | 146 | 11.3 | 20.9 | 0.00 | 0.00 | 0.00 | 91 | 1008.4 |
| 20260506044610 | 25 | 157 | 12.9 | 20.9 | 0.00 | 0.00 | 0.00 | 91 | 1008.4 |
| 20260506044111 | 25 | 171 | 12.9 | 20.9 | 0.00 | 0.00 | 0.00 | 91 | 1008.5 |
| 20260506043342 | 25 | 142 | 11.3 | 20.9 | 0.00 | 0.00 | 0.00 | 91 | 1008.5 |
| 20260506042842 | 25 | 144 | 11.3 | 20.9 | 0.00 | 0.00 | 0.00 | 91 | 1008.4 |
| 20260506042343 | 25 | 164 | 11.3 | 20.9 | 0.00 | 0.00 | 0.00 | 91 | 1008.4 |
| 20260506042113 | 25 | 148 | 12.9 | 20.9 | 0.00 | 0.00 | 0.00 | 91 | 1008.5 |
| 20260506041839 | 25 | 184 | 11.3 | 22.5 | 0.00 | 0.00 | 0.00 | 91 | 1008.4 |
| 20260506040843 | 25 | 182 | 12.9 | 22.5 | 0.00 | 0.00 | 0.00 | 91 | 1008.4 |
| 20260506040343 | 25 | 155 | 14.5 | 22.5 | 0.00 | 0.00 | 0.00 | 91 | 1008.4 |
| 20260506035842 | 25 | 139 | 14.5 | 25.7 | 0.00 | 0.00 | 0.00 | 91 | 1008.4 |
| 20260506035343 | 25 | 140 | 14.5 | 25.7 | 0.00 | 0.00 | 0.00 | 91 | 1008.4 |
| 20260506034843 | 25 | 130 | 12.9 | 24.1 | 0.00 | 0.00 | 0.00 | 91 | 1008.3 |
| 20260506034339 | 25 | 153 | 12.9 | 27.4 | 0.00 | 0.00 | 0.00 | 90 | 1008.4 |
| 20260506033838 | 25 | 161 | 12.9 | 27.4 | 0.00 | 0.00 | 0.00 | 90 | 1008.5 |
| 20260506033339 | 25 | 171 | 12.9 | 20.9 | 0.00 | 0.00 | 0.00 | 90 | 1008.4 |
| 20260506032838 | 25 | 158 | 12.9 | 22.5 | 0.00 | 0.00 | 0.00 | 90 | 1008.5 |
| 20260506032604 | 25 | 91 | 11.3 | 22.5 | 0.00 | 0.00 | 0.00 | 90 | 1008.3 |
| 20260506031838 | 25 | 138 | 12.9 | 22.5 | 0.00 | 0.00 | 0.00 | 90 | 1008.4 |
| 20260506031337 | 25 | 155 | 12.9 | 22.5 | 0.00 | 0.00 | 0.00 | 90 | 1008.4 |
| 20260506031105 | 25 | 165 | 12.9 | 22.5 | 0.00 | 0.00 | 0.00 | 90 | 1008.3 |
| 20260506030335 | 25 | 138 | 12.9 | 22.5 | 0.00 | 0.00 | 0.00 | 90 | 1008.1 |
| 20260506025835 | 25 | 152 | 11.3 | 22.5 | 0.00 | 0.00 | 0.00 | 90 | 1008.1 |
| 20260506025338 | 25 | 153 | 12.9 | 22.5 | 0.00 | 0.00 | 0.00 | 90 | 1007.9 |
| 20260506024835 | 25 | 161 | 14.5 | 27.4 | 0.00 | 0.00 | 0.00 | 90 | 1008.0 |
| 20260506024334 | 25 | 155 | 12.9 | 27.4 | 0.00 | 0.00 | 0.00 | 90 | 1007.8 |
| 20260506023834 | 25 | 168 | 11.3 | 24.1 | 0.00 | 0.00 | 0.00 | 91 | 1007.8 |
| 20260506023333 | 25 | 155 | 12.9 | 24.1 | 0.00 | 0.00 | 0.00 | 90 | 1007.7 |
| 20260506023051 | 25 | 157 | 11.3 | 22.5 | 0.00 | 0.00 | 0.00 | 90 | 1007.5 |
| 20260506023035 | 25 | 155 | 11.3 | 22.5 | 0.00 | 0.00 | 0.00 | 91 | 1007.6 |
| 20260506021829 | 25 | 148 | 12.9 | 24.1 | 0.00 | 0.00 | 0.00 | 90 | 1007.4 |
| 20260506021553 | 25 | 127 | 12.9 | 24.1 | 0.00 | 0.00 | 0.00 | 90 | 1007.3 |
| 20260506020830 | 25 | 150 | 12.9 | 22.5 | 0.00 | 0.00 | 0.00 | 90 | 1007.3 |
| 20260506020330 | 25 | 161 | 12.9 | 27.4 | 0.00 | 0.00 | 0.00 | 90 | 1007.2 |
| 20260506015831 | 25 | 130 | 12.9 | 27.4 | 0.00 | 0.00 | 0.00 | 90 | 1007.2 |
| 20260506015558 | 25 | 130 | 11.3 | 24.1 | 0.00 | 0.00 | 0.00 | 91 | 1007.1 |
| 20260506014832 | 25 | 140 | 11.3 | 19.3 | 0.00 | 0.00 | 0.00 | 91 | 1007.1 |
| 20260506014331 | 25 | 182 | 9.7 | 19.3 | 0.00 | 0.00 | 0.00 | 91 | 1006.9 |
| 20260506013830 | 25 | 148 | 9.7 | 19.3 | 0.00 | 0.00 | 0.00 | 91 | 1006.8 |
| 20260506013335 | 25 | 142 | 11.3 | 16.1 | 0.00 | 0.00 | 0.00 | 91 | 1006.6 |
| 20260506012833 | 25 | 145 | 11.3 | 19.3 | 0.00 | 0.00 | 0.00 | 90 | 1006.4 |
| 20260506012335 | 25 | 150 | 11.3 | 19.3 | 0.00 | 0.00 | 0.00 | 90 | 1006.4 |
| 20260506011833 | 25 | 144 | 11.3 | 17.7 | 0.00 | 0.00 | 0.00 | 90 | 1006.2 |
| 20260506011334 | 25 | 140 | 11.3 | 17.7 | 0.00 | 0.00 | 0.00 | 90 | 1006.3 |
| 20260506010828 | 25 | 155 | 11.3 | 22.5 | 0.00 | 0.00 | 0.00 | 89 | 1006.2 |
| 20260506010322 | 25 | 130 | 11.3 | 22.5 | 0.00 | 0.00 | 0.00 | 89 | 1006.1 |
| 20260506005823 | 25 | 125 | 12.9 | 22.5 | 0.00 | 0.00 | 0.00 | 88 | 1006.2 |
| 20260506005310 | 25 | 158 | 14.5 | 24.1 | 0.00 | 0.00 | 0.00 | 88 | 1006.1 |
| 20260506004810 | 25 | 148 | 12.9 | 25.7 | 0.00 | 0.00 | 0.00 | 87 | 1006.0 |
| 20260506004308 | 26 | 119 | 11.3 | 25.7 | 0.00 | 0.00 | 0.00 | 87 | 1006.2 |
| 20260506003807 | 26 | 138 | 11.3 | 20.9 | 0.00 | 0.00 | 0.00 | 86 | 1006.0 |
| 20260506003531 | 26 | 160 | 12.9 | 22.5 | 0.00 | 0.00 | 0.00 | 86 | 1006.1 |
| 20260506003037 | 26 | 132 | 14.5 | 33.8 | 0.00 | 0.00 | 0.00 | 86 | 1006.1 |
| 20260506002306 | 26 | 171 | 14.5 | 33.8 | 0.00 | 0.00 | 0.00 | 85 | 1006.0 |
| 20260506002035 | 26 | 146 | 12.9 | 27.4 | 0.00 | 0.00 | 0.00 | 85 | 1005.9 |
| 20260506002013 | 26 | 171 | 14.5 | 27.4 | 0.00 | 0.00 | 0.00 | 85 | 1006.0 |
| 20260506000802 | 26 | 157 | 12.9 | 24.1 | 0.00 | 0.00 | 0.00 | 85 | 1006.0 |
| 20260506000303 | 26 | 165 | 14.5 | 33.8 | 0.00 | 0.00 | 0.00 | 84 | 1006.0 |
| 20260505235802 | 26 | 142 | 14.5 | 33.8 | 0.00 | 0.00 | 0.00 | 84 | 1005.9 |